Погода в Грудках

Россия / Костромская область     57°49′24″N   41°33′04″E
темп.,
°C
ветер,
м/с
пор.,
м/с
влажн.,
%
обл.,
%
осадки,
мм/ч
давл.,
гПа
погр.,
м
14 августа, вс
вс1400:00+17юв226652 0.0 102230
03:00+18ююв237282 0.0 102262
06:00+18ссв0174100 0.0 102222
09:00+23ю115797 0.0 1022485
12:00+26ю114695 0.0 10221395
15:00+25в114872 0.0 10211298
18:00+22в366687 0.0 1021189
21:00+19в247758 0.0 102276
15 августа, пн
пн1500:00+18вюв247999 0.0 102283
03:00+18в2476100 0.0 1022108
06:00+18вюв247899 0.0 1023112
09:00+21юв236799 0.0 1023217
12:00+27ююв12444 0.0 10231513
15:00+25в1353100 0.0 1023492
18:00+22юв1163100 0.0 102322
21:00+21в2360100 0.0 102456
16 августа, вт
вт1600:00+20юв2461100 0.0 102485
03:00+19юв2467100 0.0 1025105
06:00+17юв2575100 0.0 1025125
09:00+23юв245568 0.0 1025416
12:00+26юв344087 0.0 10252005
15:00+27вюв3338100 0.0 10232205
18:00+24вюв365113 0.0 1023291
21:00+19юв256786 0.0 102484
17 августа, ср
ср1700:00+17юв23742 0.0 102445
03:00+15вюв22761 0.0 102435
06:00+15вюв25775 0.0 102494
09:00+22вюв35525 0.0 1023460
12:00+26вюв34395 0.0 10221562
15:00+27вюв33355 0.0 10211900
18:00+24вюв23505 0.0 102196
21:00+18в22605 0.0 102220
18 августа, чт
чт1800:00+17в25735 0.0 102289
03:00+15вюв26800 0.0 102297
06:00+16в25810 0.0 1023108
09:00+22вюв36540 0.0 1024507
12:00+26вюв35402 0.0 10231771
15:00+27вюв45350 0.0 10231913
18:00+25вюв26480 0.0 1023221
21:00+19в24660 0.0 102463